• In Hungary
  • List of Countries
  • For 7 days
  • Water Temperature
  • Satellite Maps
  • Weather Map
  • News
  • Weather Widgets
  • user-avatar
    Login

    Hourly Weather Hadera

    Today, 18 August, Friday

    Time Temperature Precipitation Wind Pressure Humidity
    00:00 +26°C° 0 mm 2 mps 713 mmHg 83%
    01:00 +25°C° 0 mm 2 mps 713 mmHg 84%
    02:00 +25°C° 0 mm 2 mps 713 mmHg 83%
    03:00 +25°C° 0 mm 2 mps 713 mmHg 84%
    04:00 +25°C° 0 mm 2 mps 713 mmHg 85%
    05:00 +25°C° 0 mm 2 mps 713 mmHg 86%
    06:00 +26°C° 0 mm 2 mps 714 mmHg 80%
    07:00 +26°C° 0 mm 2 mps 714 mmHg 75%
    08:00 +27°C° 0 mm 2 mps 714 mmHg 69%
    09:00 +28°C° 0 mm 3 mps 715 mmHg 64%
    10:00 +29°C° 0 mm 3 mps 715 mmHg 59%
    11:00 +30°C° 0 mm 3 mps 715 mmHg 54%
    12:00 +30°C° 0 mm 3 mps 715 mmHg 58%
    13:00 +29°C° 0 mm 3 mps 715 mmHg 61%
    14:00 +29°C° 0 mm 4 mps 715 mmHg 65%
    15:00 +28°C° 0 mm 3 mps 715 mmHg 67%
    16:00 +28°C° 0 mm 3 mps 715 mmHg 68%
    17:00 +28°C° 0 mm 3 mps 714 mmHg 70%
    18:00 +27°C° 0 mm 3 mps 715 mmHg 72%
    19:00 +27°C° 0 mm 2 mps 715 mmHg 74%
    20:00 +26°C° 0 mm 2 mps 715 mmHg 76%
    21:00 +26°C° 0 mm 2 mps 715 mmHg 78%
    22:00 +25°C° 0 mm 2 mps 715 mmHg 79%
    23:00 +25°C° 0 mm 2 mps 715 mmHg 80%

    Tomorrow, 19 August, Saturday

    Time Temperature Precipitation Wind Pressure Humidity
    00:00 +25°C° 0 mm 2 mps 715 mmHg 82%
    01:00 +24°C° 0 mm 1 mps 715 mmHg 83%
    02:00 +24°C° 0 mm 1 mps 715 mmHg 85%
    03:00 +24°C° 0 mm 1 mps 715 mmHg 86%
    04:00 +23°C° 0 mm 1 mps 714 mmHg 88%
    05:00 +23°C° 0 mm 1 mps 714 mmHg 89%
    06:00 +24°C° 0 mm 1 mps 715 mmHg 81%
    07:00 +25°C° 0 mm 1 mps 715 mmHg 74%
    08:00 +27°C° 0 mm 1 mps 715 mmHg 67%
    09:00 +28°C° 0 mm 2 mps 716 mmHg 62%
    10:00 +29°C° 0 mm 2 mps 716 mmHg 56%
    11:00 +30°C° 0 mm 3 mps 716 mmHg 51%
    12:00 +30°C° 0 mm 3 mps 716 mmHg 53%
    13:00 +30°C° 0 mm 3 mps 716 mmHg 54%
    14:00 +30°C° 0 mm 4 mps 716 mmHg 55%
    15:00 +29°C° 0 mm 4 mps 716 mmHg 58%
    16:00 +28°C° 0 mm 3 mps 715 mmHg 61%
    17:00 +28°C° 0 mm 3 mps 715 mmHg 64%
    18:00 +27°C° 0 mm 3 mps 715 mmHg 67%
    19:00 +26°C° 0 mm 3 mps 716 mmHg 70%
    20:00 +26°C° 0 mm 2 mps 716 mmHg 73%
    21:00 +25°C° 0 mm 2 mps 716 mmHg 76%
    22:00 +25°C° 0 mm 2 mps 716 mmHg 78%
    23:00 +25°C° 0 mm 2 mps 716 mmHg 81%

    Day after tomorrow, 20 August, Sunday

    Time Temperature Precipitation Wind Pressure Humidity
    00:00 +24°C° 0 mm 1 mps 715 mmHg 82%
    01:00 +24°C° 0 mm 1 mps 715 mmHg 84%
    02:00 +23°C° 0 mm 1 mps 715 mmHg 86%
    03:00 +23°C° 0 mm 1 mps 715 mmHg 86%
    04:00 +23°C° 0 mm 1 mps 715 mmHg 86%
    05:00 +22°C° 0 mm 1 mps 715 mmHg 87%
    06:00 +24°C° 0 mm 1 mps 715 mmHg 78%
    07:00 +25°C° 0 mm 1 mps 715 mmHg 69%
    08:00 +27°C° 0 mm 1 mps 716 mmHg 60%
    09:00 +28°C° 0 mm 1 mps 716 mmHg 56%
    10:00 +29°C° 0 mm 1 mps 716 mmHg 51%
    11:00 +30°C° 0 mm 2 mps 716 mmHg 47%
    12:00 +30°C° 0 mm 2 mps 716 mmHg 48%
    13:00 +30°C° 0 mm 3 mps 716 mmHg 50%
    14:00 +30°C° 0 mm 3 mps 715 mmHg 51%
    15:00 +29°C° 0 mm 3 mps 715 mmHg 54%
    16:00 +29°C° 0 mm 4 mps 715 mmHg 57%
    17:00 +28°C° 0 mm 4 mps 714 mmHg 60%
    18:00 +27°C° 0 mm 3 mps 715 mmHg 63%
    19:00 +27°C° 0 mm 3 mps 715 mmHg 66%
    20:00 +26°C° 0 mm 3 mps 715 mmHg 69%
    21:00 +25°C° 0 mm 3 mps 715 mmHg 70%
    22:00 +25°C° 0 mm 2 mps 715 mmHg 72%
    23:00 +25°C° 0 mm 2 mps 715 mmHg 74%

    21 August, Monday

    Time Temperature Precipitation Wind Pressure Humidity
    00:00 +24°C° 0 mm 2 mps 715 mmHg 75%
    01:00 +24°C° 0 mm 2 mps 714 mmHg 77%
    02:00 +23°C° 0 mm 2 mps 714 mmHg 79%
    03:00 +23°C° 0 mm 2 mps 714 mmHg 81%
    04:00 +23°C° 0 mm 2 mps 714 mmHg 82%
    05:00 +21°C° 0 mm 2 mps 714 mmHg 83%
    06:00 +24°C° 0 mm 2 mps 714 mmHg 76%
    07:00 +25°C° 0 mm 2 mps 714 mmHg 69%
    08:00 +26°C° 0 mm 2 mps 715 mmHg 61%
    09:00 +28°C° 0 mm 2 mps 715 mmHg 57%
    10:00 +29°C° 0 mm 2 mps 715 mmHg 52%
    11:00 +30°C° 0 mm 3 mps 715 mmHg 47%
    12:00 +30°C° 0 mm 3 mps 715 mmHg 49%
    13:00 +30°C° 0 mm 4 mps 715 mmHg 51%
    14:00 +30°C° 0 mm 4 mps 714 mmHg 53%
    15:00 +29°C° 0 mm 4 mps 714 mmHg 56%
    16:00 +29°C° 0 mm 4 mps 714 mmHg 58%
    17:00 +28°C° 0 mm 4 mps 714 mmHg 61%
    18:00 +27°C° 0 mm 4 mps 714 mmHg 65%
    19:00 +27°C° 0 mm 4 mps 714 mmHg 69%
    20:00 +26°C° 0 mm 3 mps 714 mmHg 73%
    21:00 +25°C° 0 mm 3 mps 714 mmHg 75%
    22:00 +25°C° 0 mm 3 mps 714 mmHg 77%
    23:00 +25°C° 0 mm 3 mps 714 mmHg 79%

    22 August, Tuesday

    Time Temperature Precipitation Wind Pressure Humidity
    00:00 +25°C° 0 mm 3 mps 714 mmHg 80%
    01:00 +24°C° 0 mm 3 mps 714 mmHg 81%
    02:00 +24°C° 0 mm 3 mps 714 mmHg 82%
    03:00 +24°C° 0 mm 2 mps 714 mmHg 83%
    04:00 +24°C° 0 mm 2 mps 714 mmHg 84%
    05:00 +23°C° 0 mm 2 mps 714 mmHg 85%
    06:00 +25°C° 0 mm 2 mps 714 mmHg 77%
    07:00 +26°C° 0 mm 2 mps 714 mmHg 70%
    08:00 +28°C° 0 mm 2 mps 715 mmHg 63%
    09:00 +29°C° 0 mm 2 mps 715 mmHg 59%
    10:00 +30°C° 0 mm 3 mps 715 mmHg 55%
    11:00 +31°C° 0 mm 3 mps 715 mmHg 52%
    12:00 +31°C° 0 mm 3 mps 715 mmHg 52%
    13:00 +32°C° 0 mm 4 mps 714 mmHg 52%
    14:00 +32°C° 0 mm 4 mps 714 mmHg 52%
    15:00 +32°C° 0 mm 4 mps 714 mmHg 54%
    16:00 +30°C° 0 mm 4 mps 714 mmHg 57%
    17:00 +29°C° 0 mm 4 mps 713 mmHg 59%
    18:00 +28°C° 0 mm 4 mps 713 mmHg 64%
    19:00 +28°C° 0 mm 4 mps 713 mmHg 69%
    20:00 +27°C° 0 mm 3 mps 713 mmHg 74%
    21:00 +26°C° 0 mm 3 mps 713 mmHg 77%
    22:00 +26°C° 0 mm 3 mps 713 mmHg 79%
    23:00 +26°C° 0 mm 3 mps 713 mmHg 82%

    23 August, Wednesday

    Time Temperature Precipitation Wind Pressure Humidity
    00:00 +25°C° 0 mm 3 mps 713 mmHg 82%
    01:00 +25°C° 0 mm 2 mps 713 mmHg 82%
    02:00 +25°C° 0 mm 2 mps 712 mmHg 82%
    03:00 +25°C° 0 mm 2 mps 713 mmHg 78%
    04:00 +25°C° 0 mm 2 mps 713 mmHg 75%
    05:00 +25°C° 0 mm 2 mps 713 mmHg 71%
    06:00 +26°C° 0 mm 1 mps 713 mmHg 63%
    07:00 +28°C° 0 mm 1 mps 713 mmHg 55%
    08:00 +30°C° 0 mm 1 mps 714 mmHg 47%
    09:00 +31°C° 0 mm 1 mps 714 mmHg 45%
    10:00 +32°C° 0 mm 2 mps 714 mmHg 44%
    11:00 +34°C° 0 mm 2 mps 714 mmHg 42%
    12:00 +34°C° 0 mm 2 mps 714 mmHg 42%
    13:00 +34°C° 0 mm 3 mps 714 mmHg 42%
    14:00 +34°C° 0 mm 3 mps 714 mmHg 42%
    15:00 +34°C° 0 mm 3 mps 714 mmHg 43%
    16:00 +33°C° 0 mm 3 mps 713 mmHg 45%
    17:00 +33°C° 0 mm 3 mps 713 mmHg 46%
    18:00 +30°C° 0 mm 3 mps 713 mmHg 52%
    19:00 +29°C° 0 mm 3 mps 713 mmHg 58%
    20:00 +28°C° 0 mm 3 mps 714 mmHg 64%
    21:00 +28°C° 0 mm 3 mps 713 mmHg 64%
    22:00 +28°C° 0 mm 3 mps 713 mmHg 65%
    23:00 +27°C° 0 mm 3 mps 713 mmHg 65%
    Show more